Port Said Airport, Egypt

09:18 EET 31. Červenec 2015 (GMT +0200)
Port Said | | Change Station
CLOSE
Current Station
Letiště
Location: Port Said Airport,
Nadmořská výška: 7 ft
Poblíž povětrnostní stanice

Výška 7 ft 31.28 °N, 32.24 °E | Updated 1 hour ago

Mist
Opar
82 °F
Pocit jako 91 °F
S
5
Vítr proměnlivý Vítr od ZJZ

Dnes
Vysoké -- | Nízké -- °F
--% Možnost srážek
Včera
Vysoké -- | Nízké -- °F
Precip. -- inčů
5:06 AM 6:47 PM
Úplněk, 100% visible
Tlak 29.74 inčů
Viditelnost 1.2 mílí
Zataženo
Tepelný index 91 °F
Rosný bod 77 °F
Vlhkost 84%
Dešťové srážky 0.00 inčů
Sněhová pokrývka Není k dispozici
UV záření Není k dispozici
Pyl Není k dispozici
Kvalita ovzduší Není k dispozici
Flu Activity Není k dispozici
METAR HEPS 310600Z 24004KT 2000 BR NSC 28/25 Q1007 TEMPO 3000

More Conditions Fewer Conditions

Tlak 29.74 inčů
Viditelnost 1.2 mílí
Zataženo
Tepelný index 91 °F
Rosný bod 77 °F
Vlhkost 84%
Dešťové srážky 0.00 inčů
Sněhová pokrývka Není k dispozici
UV záření Není k dispozici
Pyl Není k dispozici
Kvalita ovzduší Není k dispozici
Flu Activity Není k dispozici
METAR HEPS 310600Z 24004KT 2000 BR NSC 28/25 Q1007 TEMPO 3000

More Conditions Fewer Conditions

10-Day Weather Forecast

×

Almanac

Astronomie

Jul. 31, 2015 Východ Západ
Skutečný čas
Občanský soumrak
Námořní soumrak
Astronomický soumrak
Měsíc
Délka denního světla
Délka dne
Tomorrow will be .
, % of the Moon is Illuminated

Dnešní extrémy

Nejvyšší hodnoty ve státě Nejnižší hodnoty ve státě

Community

WunderPhotos

Upload Photos

1,842,634 snímků staženo!

WunderBlogs® & News

Nearby

Kvalita ovzduší

  Kvalita ovzduší Index kvality ovzduší Polutant
Not available.

Výška sněhu

Station Hloubka Nadmořská výška

Seizmická činnost

Město Distance Mag. Čas & datum
Minimální zobrazený rozsah je 2.5.

Pobřežní teplota vody

Lokalita Teplota

Stations

Poblíž povětrnostní stanice

Lokace stanice Tepl. Ochlazování větrem Rosný bod Vlhkost Vítr Precip. Výška Čas hlášení Typ